Location: ???????????
(38.2661°N, 23.2350°E)
Time: 00:12:12
(UTC+00:00)

Cosmos 1805 - Visible Passes

Search period start: 19 April 2024 00:00
Search period end: 29 April 2024 00:00
Orbit: 491 x 499 km, 82.5° (Epoch: 18 April)

Date Brightness Start Highest point End Pass type
(mag) Time Alt. Az. Time Alt. Az. Time Alt. Az.
19 Apr 6.1 00:29:48 10° NE 00:31:19 14° ENE 00:31:19 14° ENE visible
19 Apr 4.6 02:03:54 10° NNW 02:05:53 24° NW 02:05:53 24° NW visible
20 Apr 4.6 01:42:11 10° NNW 01:44:06 27° NW 01:44:06 27° NW visible
21 Apr 4.8 01:20:34 10° N 01:22:21 27° NNW 01:22:21 27° NNW visible
22 Apr 5.2 00:59:01 10° N 01:00:37 24° N 01:00:37 24° N visible
23 Apr 5.6 00:37:32 10° N 00:38:53 20° NNE 00:38:53 20° NNE visible
24 Apr 6.0 00:16:10 10° NNE 00:17:10 16° NNE 00:17:10 16° NNE visible
24 Apr 6.4 23:54:56 10° NNE 23:55:26 12° NNE 23:55:26 12° NNE visible
26 Apr 5.8 01:07:59 10° NNW 01:08:15 11° NNW 01:08:15 11° NNW visible
27 Apr 5.9 00:46:03 10° NNW 00:46:30 13° NNW 00:46:30 13° NNW visible
28 Apr 6.0 00:24:12 10° N 00:24:44 14° N 00:24:44 14° N visible
